Tracking 31013 objects as of 10-Jul-2025
HD Live streaming from Space Station
objects crossing your sky now

FENGYUN 1C DEB

Track FENGYUN 1C DEB now!
10-day predictions


NORAD ID: 32353
Int'l Code: 1999-025CYW
Perigee: 802.2 km
Apogee: 984.2 km
Inclination: 98.9 °
Period: 102.7 minutes
Semi major axis: 7264 km
RCS: 0.0065 m2 (small)
Launch date: May 10, 1999
Source: People's Republic of China (PRC)
Launch site: Taiyaun Space Center, China (TSC)

Note: This is SATELLITE DEBRIS
Your satellite tracking list
Your tracking list is empty




NASA's NSSDC Master Catalog

Two Line Element Set (TLE):
1 32353U 99025CYW 25170.24196342  .00002429  00000-0  15073-2 0  9992
2 32353  98.9204 350.1796 0125261 330.6103  28.8058 14.02226991607194
Source of the keplerian elements: AFSPC